[Iaude] MPEC T243: 2023 TA8 [a=1.06,e=0.37,i=21.8,H=21.49]

mpec at marsden.cfa.harvard.edu mpec at marsden.cfa.harvard.edu
Sat Oct 14 10:10:07 EDT 2023


M.P.E.C. 2023-T243                             Issued 2023 October 14, 14:08 UT

     The Minor Planet Electronic Circulars contain information on unusual
         minor planets, routine data on comets and natural satellites,
         and occasional editorial announcements.  They are published
    on behalf of Division F of the International Astronomical Union by the
          Minor Planet Center, Smithsonian Astrophysical Observatory,
                          Cambridge, MA 02138, U.S.A.
			  
             Prepared using the Tamkin Foundation Computer Network

                              MPC at CFA.HARVARD.EDU
            URL https://www.minorplanetcenter.net/    ISSN 1523-6714

                                    2023 TA8                                    


                           Revision to MPEC 2023-T200                           

Additional Observations:
     K23T08A  C2010 10 14.49491302 46 16.745-22 53 40.96         21.39GVET243F51
     K23T08A  C2010 10 16.49018502 42 25.521-24 20 49.35         21.12GVET243F51
     K23T08A  C2010 10 18.46769802 38 22.954-25 44 19.26         21.60GVET243F51
     K23T08A  C2011 09 25.44376100 25 19.760-12 31 40.52         20.93GVET243F51
     K23T08A  C2011 09 25.45542000 25 18.043-12 32 13.56         21.43GVET243F51
     K23T08A  C2011 09 30.37851100 13 59.960-16 13 03.94         20.86GVET243F51
     K23T08A  C2011 09 30.38930400 13 58.443-16 13 31.28         20.28GVET243F51
     K23T08A  C2011 09 30.42488500 13 53.343-16 15 00.52         21.04GVET243F51
     K23T08A KC2021 10 03.61963205 50 39.955-07 50 12.91         21.84GVET243F52
     K23T08A KC2022 09 02.60664203 31 37.428+04 41 15.26         23.19GVET243F52
     K23T08A  C2022 09 08.59203803 38 08.448+02 11 15.71         22.59GVET243F51
     K23T08A  C2022 09 08.59858803 38 08.800+02 11 05.01         23.20GVET243F51
     K23T08A  C2022 09 08.60488703 38 09.135+02 10 55.18         23.31GVET243F51
     K23T08A  C2022 09 08.62451303 38 10.216+02 10 23.29         22.22GVET243F51
     K23T08A  C2022 09 08.63093403 38 10.577+02 10 12.18         23.16GVET243F51
     K23T08A  C2022 09 23.56998003 48 24.705-05 52 46.76         23.14GVET243F51
     K23T08A  C2022 09 23.58202103 48 24.913-05 53 13.88         22.35GVET243F51
     K23T08A  C2022 09 23.59435503 48 25.083-05 53 41.86         21.94GVET243F51
     K23T08A  C2022 09 30.61480403 49 23.343-10 35 33.75         22.41GVET243F52
     K23T08A  C2022 09 30.62443003 49 23.253-10 35 58.05         22.59GVET243F52
     K23T08A  C2022 10 18.45920403 37 19.200-24 13 44.68         21.79GVET243F52
     K23T08A  C2022 10 18.46960103 37 18.289-24 14 14.00         21.66GVET243F52
     K23T08A  C2022 10 18.48002203 37 17.387-24 14 43.18         21.84GVET243F52
     K23T08A  C2022 10 18.49042703 37 16.455-24 15 12.42         22.09GVET243F52
     K23T08A  C2022 10 20.62015503 34 13.931-25 54 03.47         21.59GVET243F51
     K23T08A  C2022 10 20.62079403 34 13.866-25 54 05.25         21.67GVET243F51
     K23T08A  C2022 10 23.45579603 29 40.911-28 02 48.04         21.95GVET243F52
     K23T08A  C2022 10 23.46531303 29 39.851-28 03 13.30         22.23GVET243F52
     K23T08A  C2022 10 23.47480703 29 38.812-28 03 38.80         22.02GVET243F52
     K23T08A  C2022 10 23.48430203 29 37.756-28 04 04.45         21.96GVET243F52
     K23T08A KC2022 11 03.41342103 06 52.151-35 21 34.72         21.56GVET243F52

Observer details:
F51 Pan-STARRS 1, Haleakala.  Observers J. Bulger, T. Lowe, P. Minguez, A.
    Schultz, I. Smith.  Measurers K. Chambers, T. de Boer, J. Fairlamb, H.
    Gao, M. Huber, C.-C. Lin, E. Magnier, Y. Ramanjooloo, R. Wainscoat, R.
    Weryk.  1.8-m Ritchey-Chretien + CCD.
F52 Pan-STARRS 2, Haleakala.  Observers J. Bulger, T. Lowe, P. Minguez, A.
    Schultz, I. Smith.  Measurers K. Chambers, T. de Boer, J. Fairlamb, H.
    Gao, M. Huber, C.-C. Lin, E. Magnier, Y. Ramanjooloo, R. Wainscoat, R.
    Weryk.  1.8-m Ritchey-Chretien + CCD.

Orbital elements:
2023 TA8                                                 Earth MOID = 0.2624 AU
Epoch 2023 Sept. 13.0 TT = JDT 2460200.5                Veres                   
M 156.40062              (2000.0)            P               Q                  
n   0.90563135     Peri.   22.28323     -0.97006676     +0.23533920             
a   1.0580392      Node   170.70154     -0.23760199     -0.97077133             
e   0.3703380      Incl.   21.75347     +0.05015752     -0.04710080             
P   1.09           H   21.49          G   0.15           U   1                  
Residuals in seconds of arc
101014 F51  0.1-  0.0     220930 F52  0.0   0.3-    230909 F52  0.0   0.1-
101016 F51  0.0   0.2-    221018 F52  0.1-  0.2-    230909 F52  0.2-  0.0
101018 F51  0.1-  0.2-    221018 F52  0.1-  0.2-    230909 F52  0.0   0.1+
110925 F51  0.2+  0.1+    221018 F52  0.0   0.0     230921 F51  0.1+  0.3+
110925 F51  0.2+  0.2+    221018 F52  0.3-  0.0     230921 F51  0.2-  0.1+
110930 F51  0.2-  0.2-    221020 F51  0.1+  0.1+    230921 F51  0.2+  0.2+
110930 F51  0.1+  0.3-    221020 F51  0.1+  0.1+    230921 F51  0.0   0.2+
110930 F51  0.0   0.1+    221023 F52  0.1-  0.2-    230921 F51  0.2-  0.2-
211003 F52  0.3-  0.0     221023 F52  0.2-  0.1+    231003 F51  0.2+  0.5-
220902 F52  0.1-  0.1-    221023 F52  0.0   0.1+    231003 F51  0.3+  0.1-
220908 F51  0.1-  0.1+    221023 F52  0.0   0.1-    231005 F52  0.2-  0.1-
220908 F51  0.2-  0.0     221103 F52  0.0   0.2+    231005 F52  0.2-  0.1-
220908 F51  0.4-  0.4+    230729 F52  0.2-  0.2-    231005 F52  0.2-  0.2-
220908 F51  0.2-  0.3+    230729 F52  0.1-  0.4+    231008 F51  0.1-  0.3+
220908 F51  0.1-  0.4-    230729 F52  0.2-  0.1+    231009 F51  0.1+  0.1+
220923 F51  0.1-  0.1+    230821 F52  0.2-  0.0     231009 F51  0.0   0.1+
220923 F51  0.4+  0.2+    230821 F52  0.3-  0.0     231009 F51  0.1-  0.0
220923 F51  0.2+  0.2+    230821 F52  0.0   0.2-    231009 F51  0.1-  0.0
220930 F52  0.0   0.4-    230821 F52  0.4-  0.0

Ephemeris:
2023 TA8                 a,e,i = 1.06, 0.37, 22                  q = 0.6662
Date    TT    R. A. (2000) Decl.     Delta      r    Elong.  Phase     V
2023 09 14    01 43 20.0 -02 10 40   0.4859  1.4335   145.6    23.4    21.8
...
2023 09 29    01 16 04.3 -14 09 24   0.4676  1.4472   158.5    14.7    21.5
...
2023 10 07    00 57 55.6 -19 56 37   0.4814  1.4498   154.8    17.1    21.6
...
2023 10 13    00 44 16.9 -23 30 50   0.5019  1.4495   148.4    21.2    21.8
2023 10 14    00 42 05.0 -24 01 58   0.5061  1.4492   147.2    21.9    21.9
2023 10 15    00 39 55.2 -24 31 46   0.5105  1.4490   146.0    22.7    21.9
...
2023 10 21    00 27 50.2 -27 02 22   0.5405  1.4462   138.6    27.1    22.2
...
2023 10 29    00 14 53.2 -29 13 19   0.5884  1.4395   129.2    32.3    22.5
...
2023 11 13    00 01 57.1 -30 33 49   0.6917  1.4180   113.8    39.7    23.0

A. U. Tomatic                (C) Copyright 2023 MPC           M.P.E.C. 2023-T243





More information about the Iaude mailing list